Key West NAF, FL

10:15 PM EDT on June 22, 2017 (GMT -0400)
Key West Naval Air Station

Weather History for KNQX - October, 2011

Change the Weather History Date:

Monday, October 17, 2011

  Actual Average Record
Temperature  
Mean Temperature 76 °F -  
Max Temperature 79 °F 84 °F 89 °F (2007)
Min Temperature 75 °F 75 °F 67 °F (1977)
Cooling Degree Days 12    
Growing Degree Days 26 (Base 50)    
Moisture  
Dew Point 73 °F    
Average Humidity 90    
Maximum Humidity 94    
Minimum Humidity 81    
Precipitation  
Precipitation 6.72 in - - ()
Sea Level Pressure  
Sea Level Pressure 29.88 in    
Wind  
Wind Speed 12 mph (ENE)    
Max Wind Speed 22 mph    
Max Gust Speed 30 mph    
Visibility 4 miles    
Events Fog , Rain    
Averages and records for this station are not official NWS values.
T = Trace of Precipitation, MM = Missing Value Source: NWS Daily Summary

Daily Weather History Graph

Daily Weather History Graph

Search for Another Location

Airport or City:

Trip Planner

Search our weather history database for the weather conditions in past years. The results will help you decide how hot, cold, wet, or windy it might be!

Date:

Astronomy

Oct. 17, 2011 Rise Set
Actual Time 7:25 AM EDT 6:58 PM EDT
Civil Twilight 7:02 AM EDT 7:21 PM EDT
Nautical Twilight 6:35 AM EDT 7:47 PM EDT
Astronomical Twilight 6:09 AM EDT 8:14 PM EDT
Moon 11:02 PM EDT (10/17) 12:05 PM EDT (10/17)
Length of Visible Light 12h 18m
Length of Day
11h 32m
Waning Gibbous, 74% of the Moon is Illuminated
Oct 17
Waning Gibbous
Oct 19
Last Quarter
Oct 26
New
Nov 2
First Quarter
Nov 10
Full

Hourly Weather History & Observations

Time (EDT) Temp. Dew Point Humidity Pressure Visibility Wind Dir Wind Speed Gust Speed Precip Events Conditions
12:01 AM 75.2 °F 73.4 °F 94% 29.94 in 6.0 mi North 9.2 mph - 0.01 in Rain Light Rain
12:08 AM 75.2 °F 73.4 °F 94% 29.94 in 10.0 mi NNE 8.1 mph - 0.01 in Rain Light Rain
12:50 AM 77.0 °F 73.4 °F 89% 29.92 in 3.0 mi NE 12.7 mph 19.6 mph 0.09 in Rain Rain
12:53 AM 77.0 °F 73.9 °F 90% 29.92 in 3.0 mi ENE 11.5 mph 19.6 mph 0.10 in Rain Rain
1:40 AM 77.0 °F 73.4 °F 89% 29.91 in 9.0 mi ENE 13.8 mph - 0.11 in Rain Light Rain
1:44 AM 77.0 °F 73.4 °F 89% 29.91 in 7.0 mi ENE 9.2 mph - 0.11 in Rain Light Rain
1:53 AM 77.0 °F 73.9 °F 90% 29.90 in 6.0 mi ENE 12.7 mph 18.4 mph 0.12 in Rain Light Rain
2:14 AM 75.2 °F 73.4 °F 94% 29.89 in 2.0 mi NE 12.7 mph 27.6 mph 0.17 in Rain Heavy Rain
2:26 AM 77.0 °F 73.4 °F 89% 29.90 in 2.0 mi NE 12.7 mph 17.3 mph 0.32 in Rain Heavy Rain
2:37 AM 75.2 °F 73.4 °F 94% 29.90 in 1.8 mi ENE 12.7 mph 18.4 mph 0.50 in Rain Heavy Rain
2:53 AM 75.0 °F 73.0 °F 94% 29.89 in 1.5 mi NE 10.4 mph 21.9 mph 0.83 in Rain Heavy Rain
3:21 AM 75.2 °F 73.4 °F 94% 29.86 in 0.8 mi NNE 19.6 mph 27.6 mph 0.74 in Rain Heavy Rain
3:30 AM 75.2 °F 73.4 °F 94% 29.86 in 1.0 mi North 17.3 mph 29.9 mph 1.03 in Rain Heavy Rain
3:35 AM 75.2 °F 73.4 °F 94% 29.85 in 1.5 mi NE 13.8 mph 28.8 mph 1.09 in Rain Heavy Rain
3:53 AM 75.9 °F 73.0 °F 91% 29.86 in 1.5 mi NE 11.5 mph 21.9 mph 1.41 in Rain Heavy Rain
4:00 AM 75.2 °F 73.4 °F 94% 29.87 in 1.0 mi ENE 11.5 mph 16.1 mph 0.26 in Rain Heavy Rain
4:10 AM 75.2 °F 73.4 °F 94% 29.86 in 0.8 mi WSW 21.9 mph - 0.79 in Rain Heavy Rain
4:16 AM 77.0 °F 73.4 °F 89% 29.86 in 1.0 mi SW 17.3 mph 25.3 mph 1.08 in Rain Heavy Rain
4:23 AM 77.0 °F 73.4 °F 89% 29.87 in 1.2 mi ENE 8.1 mph 25.3 mph 1.20 in Rain Heavy Rain
4:28 AM 78.8 °F 73.4 °F 83% 29.86 in 3.0 mi East 12.7 mph 16.1 mph 1.22 in Rain Rain
4:46 AM 77.0 °F 73.4 °F 89% 29.87 in 2.0 mi East 11.5 mph 23.0 mph 1.41 in Rain Heavy Rain
4:53 AM 77.0 °F 73.9 °F 90% 29.86 in 4.0 mi East 13.8 mph - 1.44 in Rain Rain
5:35 AM 77.0 °F 73.4 °F 89% 29.87 in 2.5 mi East 10.4 mph 23.0 mph 0.22 in Rain Rain
5:38 AM 77.0 °F 73.4 °F 89% 29.87 in 4.0 mi ENE 10.4 mph 19.6 mph 0.22 in Rain Rain
5:52 AM 75.9 °F 73.0 °F 91% 29.86 in 7.0 mi ENE 12.7 mph - 0.25 in Rain Rain
6:53 AM 77.0 °F 73.0 °F 88% 29.88 in 10.0 mi East 17.3 mph 24.2 mph 0.04 in Rain Light Rain
7:05 AM 77.0 °F 73.4 °F 89% 29.89 in 2.0 mi East 13.8 mph 26.5 mph N/A Rain Light Rain
7:20 AM 77.0 °F 73.4 °F 89% 29.89 in 4.0 mi East 17.3 mph 21.9 mph N/A Rain Light Rain
7:53 AM 75.9 °F 73.0 °F 91% 29.88 in 4.0 mi ENE 16.1 mph 23.0 mph N/A Rain Light Rain
8:53 AM 75.9 °F 72.0 °F 87% 29.91 in 4.0 mi ENE 15.0 mph 26.5 mph 0.31 in Rain Light Rain
9:53 AM 77.0 °F 73.0 °F 88% 29.91 in 6.0 mi ENE 10.4 mph 17.3 mph 0.06 in Rain Light Rain
10:23 AM 77.0 °F 73.4 °F 89% 29.92 in 2.0 mi East 19.6 mph - 0.13 in Rain Heavy Rain
10:53 AM 77.0 °F 73.9 °F 90% 29.91 in 3.0 mi ENE 17.3 mph - 0.27 in Rain Rain
11:55 AM 75.2 °F 71.6 °F 89% 29.93 in 1.0 mi East 18.4 mph - 0.09 in Rain Light Rain
12:02 PM 75.2 °F 73.4 °F 94% 29.93 in 0.5 mi East 11.5 mph - 0.34 in Rain Light Rain
12:09 PM 75.2 °F 71.6 °F 89% 29.93 in 1.0 mi ENE 8.1 mph - 0.45 in Rain Light Rain
12:20 PM 75.2 °F 73.4 °F 94% 29.92 in 2.0 mi East 16.1 mph 20.7 mph 0.54 in Rain Light Rain
12:53 PM 75.9 °F 73.0 °F 91% 29.91 in 3.0 mi East 12.7 mph 18.4 mph 0.72 in Rain Light Rain
1:53 PM 75.9 °F 73.0 °F 91% 29.88 in 3.0 mi ENE 11.5 mph 17.3 mph 0.43 in Rain Light Rain
2:35 PM 75.2 °F 71.6 °F 89% 29.85 in 1.0 mi NNE 10.4 mph 19.6 mph 0.12 in Rain Light Rain
2:53 PM 75.9 °F 72.0 °F 87% 29.84 in 0.2 mi North 10.4 mph 21.9 mph 0.45 in Fog , Rain Heavy Rain
3:06 PM 77.0 °F 73.4 °F 89% 29.85 in 2.0 mi East 8.1 mph 20.7 mph 0.10 in Rain Light Rain
3:16 PM 77.0 °F 73.4 °F 89% 29.84 in 10.0 mi ENE 10.4 mph - 0.10 in Rain Light Rain
3:53 PM 75.9 °F 73.0 °F 91% 29.83 in 10.0 mi ENE 11.5 mph 18.4 mph 0.10 in   Overcast
4:53 PM 77.0 °F 73.0 °F 88% 29.83 in 10.0 mi ENE 10.4 mph - N/A   Overcast
5:53 PM 77.0 °F 73.0 °F 88% 29.83 in 10.0 mi ENE 12.7 mph - 0.01 in   Overcast
6:53 PM 77.0 °F 73.0 °F 88% 29.82 in 10.0 mi ENE 17.3 mph - N/A   Overcast
7:53 PM 77.0 °F 73.9 °F 90% 29.82 in 10.0 mi ENE 16.1 mph 21.9 mph N/A   Overcast
8:53 PM 78.1 °F 73.0 °F 84% 29.82 in 10.0 mi ENE 15.0 mph 24.2 mph N/A   Overcast
9:53 PM 78.1 °F 72.0 °F 81% 29.85 in 10.0 mi East 16.1 mph 23.0 mph N/A   Overcast
10:53 PM 78.1 °F 73.9 °F 87% 29.85 in 4.0 mi East 11.5 mph - N/A Rain Heavy Rain
11:53 PM 77.0 °F 73.9 °F 90% 29.84 in 2.5 mi East 12.7 mph - 0.18 in Rain Heavy Rain